unique visitors counter

Jackpot

Texas Poker Multi Jackpot System

Kini Telah hadir Jackpot SUPER ROYAL FLUSH

Kini Telah hadir Jackpot 2000 (khusus table VIP keatas).

Ikutilah global jackpot yang tersedia di system kami, dengan system jackpot terbaru dan pertama di indonesia, anda dapat membeli jackpot dengan harga 100 rupiah saja dan menangkan hadiahnya hingga puluhan juta rupiah.

Jackpot bukanlah suatu keharusan untuk dibeli, namun kami memberikan suatu fitur tambahan untuk member tercinta dari www.pokertexas88.com.

Terdapat tiga pilihan harga jackpot yang bisa anda beli yaitu :100,500,1000 dan 2000(khusus table VIP Keatas) rupiah.

Hadiah dari Multi jackpot system www.pokertexas88.com

  1. full house x 10 harga jackpot yang anda beli.
      (contoh:anda membeli 1000 maka:1000 X10 = 10.000)
  2. four of kind x 250 harga jackpot yang anda beli
      (contoh:anda membeli 1000 maka:1000 X250 = 250.000)
  3. Straight flush x 1200
      (contoh:anda membeli 1000 maka:1000 X1200 = 1.200.000)
  4. Royal flush x 10000 harga jackpot yang anda beli
      (contoh:anda membeli 1000 maka:1000 X10000 = 10.000.000)
  5. SUPER ROYAL FLUSH x 30000 harga jackpot yang anda beli
      (contoh:anda membeli 1000 maka:1000 X30000 = 30.000.000)

Kondisi kartu

  1. full house adalah kondisi kartu dimana kartu anda dan kartu tengah dengan total 7 kartu bisa mendapatkan nilai 5 kartu dengan kombinasi 1 tris(three of kind) dan 1 pair, contoh 3 kartu 10 dan 2 kartu 5
  2. Four of kind adalah kondisi kartu dimana kartu anda dan kartu tengah dengan total 7 kartu bisa mendapatkan nilai 5 kartu dengan kombinasi 4 kartu yang sama jumlah dan 1 kartu apapun juga contoh anda mendapatkan 4 buah kartu angka 3 dan 1 kartu apapun.
  3. Staright flush adalah kondisi kartu dimana kartu anda dan kartu tengah dengan total 7 kartu bisa mendapatkan nilai 5 kartu dengan kombinasi seri / staright dengan kembang yang sama contoh : urutan kartu dari angka 5, 6, 7, 8 , 9 10 dengan kembang yg sama misalnya as hati
  4. Royal flush adalah kondisi kartu dimana kartu anda dan kartu tengah dengan total 7 kartu bisa mendapatkan nilai 5 kartu dengan kombinasi seri / staright dengan kembang yang sama tetapi kartu tersebut haruslah dimulai dari 10. contoh 10, Queen, Jack, King dan aces dengan kembang yang sama
  5. Super Royal flush adalah kondisi kartu dimana Kedua kartu anda digabung dengan 3 kartu pertama meja haruslah royal flush. contoh kartu anda 10,Queen kembang sama dan 3 kartu pertama meja adalah Jack, King dan aces dengan kembang yang sama

Demikian adalah penjelasan dari Multi Jackpot www.pokertexas88.com terima kasih dan selamat bermain salam hoki dari kami

Texas Poker Jackpot Winner

TOP SUPER ROYAL FLUSH
No.TanggalNamaPriceWin
125/09 05:30B365CA9ASuper Royal flush6,000,000
225/09 00:17N0AH16Super Royal flush3,000,000
324/09 23:12SAF99Super Royal flush1,500,000
424/09 16:34OPPOF9Super Royal flush30,000,000
524/09 14:33ALL19Super Royal flush6,000,000
TOP ROYAL FLUSH
No.TanggalNamaPriceWin
125/09 08:09TATAA2000Royal flush2,000,000
225/09 07:23EXA98Royal flush2,000,000
325/09 07:21TIRTA678Royal flush1,000,000
425/09 07:18GUN69Royal flush5,000,000
525/09 06:41YANIIIII11Royal flush5,000,000
TOP STRAIGHT FLUSH
No.TanggalNamaPriceWin
125/09 08:34ASAD777Straight Flush1,200,000
225/09 08:32WIJDAJA00Straight Flush240,000
325/09 08:32ANDESMEN10Straight Flush600,000
425/09 08:31B4TITIB3LStraight Flush240,000
525/09 08:31W3W4WStraight Flush1,200,000
LATEST JACKPOT
No.TanggalNamaPriceWin
125/09 08:34SUKESI531Full House10,000
225/09 08:34ASAD777Straight Flush1,200,000
325/09 08:33STSNFull House1,000
425/09 08:33MEHMET001Full House1,000
525/09 08:33FDB20892Four Of A Kind50,000
625/09 08:33HUNRIZFull House5,000
725/09 08:33SURYA93Full House10,000
825/09 08:33PINTER87Full House2,000
925/09 08:33FARISS16Full House5,000
1025/09 08:33SUKMA95Full House2,000
1125/09 08:33MWMW14Full House2,000
1225/09 08:33SEMPAK87Full House1,000
1325/09 08:33SAKTI17Full House5,000
1425/09 08:33SAWI007Full House5,000
1525/09 08:33ARS1984Full House500
1625/09 08:33REZAZARE88Full House2,000
1725/09 08:33ADEYUS_WDFull House5,000
1825/09 08:33MUNIEH99Full House5,000
1925/09 08:33GR3G4545Full House5,000
2025/09 08:33BOBO90HANFull House5,000
2125/09 08:33ZIFA4LFull House5,000
2225/09 08:33RABUXSIFull House10,000
2325/09 08:33GEJROT22Full House5,000
2425/09 08:33L4NCIP868Full House5,000
2525/09 08:33PANDAWA22Full House1,000
2625/09 08:33FARA221221Full House20,000
2725/09 08:33SELBO88Full House1,000
2825/09 08:33TUK4N9_TVFour Of A Kind125,000
2925/09 08:33CUT4154HFull House2,000
3025/09 08:33FIKRI77Full House2,000
3125/09 08:33KANJUT86Full House5,000
3225/09 08:33RZ_01Full House2,000
3325/09 08:32BOPENG10Full House20,000
3425/09 08:32AKEW1983Full House10,000
3525/09 08:32KONGKE90Full House5,000
3625/09 08:32J4TF9T99Full House2,000
3725/09 08:32REDBOX01Full House2,000
3825/09 08:32L0OKB9Full House5,000
3925/09 08:32M_O_CFull House10,000
4025/09 08:32W3RKUD0ROFull House5,000
4125/09 08:32A1NKGELOFull House2,000
4225/09 08:32WIJDAJA00Straight Flush240,000
4325/09 08:32MOMY07Full House5,000
4425/09 08:32IP4N122Full House1,000
4525/09 08:32DNDIDFull House5,000
4625/09 08:32JOKOWI_12Full House2,000
4725/09 08:32CROOT78Full House1,000
4825/09 08:32WAYOIIK5Full House10,000
4925/09 08:32A5OOYFour Of A Kind250,000
5025/09 08:32BASTHOSFull House2,000

Domino Multi Jackpot System

Ikutilah global jackpot yang tersedia di system kami, dengan system jackpot terbaru dan pertama di indonesia, anda dapat membeli jackpot dengan harga 100 rupiah saja dan menangkan hadiahnya hingga puluhan juta rupiah.

Jackpot bukanlah suatu keharusan untuk dibeli, namun kami memberikan suatu fitur tambahan untuk member tercinta dari www.pokertexas88.com.

Terdapat tiga pilihan harga jackpot yang bisa anda beli yaitu :100,500 dan 1000 rupiah.

Hadiah dari Multi jackpot system www.pokertexas88.com

  1. Murni Kecil x 50 harga jackpot yang anda beli.
      (contoh:anda membeli 1000 maka:1000 X 50 = 50.000)
  2. Murni Besar x 50 harga jackpot yang anda beli
      (contoh:anda membeli 1000 maka:1000 X 50 = 50.000)
  3. BALAK x 100 harga jackpot yang anda beli
      (contoh:anda membeli 1000 maka:1000 X 100 = 100.000)
  4. ENAM DEWA x 6666 harga jackpot yang anda beli
      (contoh:anda membeli 1000 maka:1000 X 6666 = 6.666.000)

Demikian adalah penjelasan dari Multi Jackpot www.pokertexas88.com terima kasih dan selamat bermain salam hoki dari kami

Domino Jackpot Winner

TOP ENAM DEWA
No.TanggalNamaPriceWin
125/09 07:33REJEKIUYEmurni enam6,666,000
225/09 07:28B55EK757murni enam666,600
325/09 06:42ATIKmurni enam666,600
425/09 03:00TEMPUYAK90murni enam3,333,000
525/09 02:56MULLAHmurni enam3,333,000
TOP BALAK
No.TanggalNamaPriceWin
125/09 08:29M4N5UL3balak100,000
225/09 08:27ARSEL31balak50,000
325/09 08:27KEMPUL87balak10,000
425/09 08:20JAILQQbalak100,000
525/09 08:14ALICETANIAbalak100,000
LATEST JACKPOT
No.TanggalNamaPriceWin
125/09 08:33SOUL9murni besar50,000
225/09 08:32JIUNG21murni kecil5,000
325/09 08:32F486D12Dlucky992,500
425/09 08:31KOPIRACUNlucky99350,000
525/09 08:31KAMLANImurni besar5,000
625/09 08:30ARIANTO86lucky992,500
725/09 08:30RIC_53lucky9925,000
825/09 08:30XONOX77murni kecil50,000
925/09 08:30PINOKIO99murni kecil25,000
1025/09 08:29M4N5UL3balak100,000
1125/09 08:28HARIANSYAHmurni kecil50,000
1225/09 08:27CEMPLUNDmurni besar50,000
1325/09 08:27ARSEL31balak50,000
1425/09 08:27G3FSYTF2HWlucky992,500
1525/09 08:27TADUKmurni besar25,000
1625/09 08:27KEMPUL87balak10,000
1725/09 08:27AWR777murni besar50,000
1825/09 08:26MARKONA122murni kecil25,000
1925/09 08:25TEA_89murni kecil5,000
2025/09 08:25BERDARAmurni besar50,000
2125/09 08:24IUPEmurni kecil50,000
2225/09 08:23THEFLASTERmurni kecil50,000
2325/09 08:23KALVENOmurni kecil50,000
2425/09 08:22RAJADUIT99murni kecil25,000
2525/09 08:21GEMBLINXmurni besar50,000
2625/09 08:20ALICETANIAmurni kecil50,000
2725/09 08:20JAILQQbalak100,000
2825/09 08:19ERIKPRASmurni kecil50,000
2925/09 08:19BUNTORAmurni kecil5,000
3025/09 08:19A6F92CD7murni besar50,000
3125/09 08:18BONI18murni besar50,000
3225/09 08:18PANTETO93murni besar50,000
3325/09 08:17GOGON888lucky9925,000
3425/09 08:17PRAPAT77murni kecil50,000
3525/09 08:17A6F92CD7murni besar50,000
3625/09 08:15AJS77murni kecil25,000
3725/09 08:14ALICETANIAbalak100,000
3825/09 08:13THEFLASTERmurni kecil50,000
3925/09 08:13ITILGACENGmurni kecil5,000
4025/09 08:13CEMPLUNDmurni besar50,000
4125/09 08:12XTREAM_89murni kecil25,000
4225/09 08:12IUPEmurni kecil50,000
4325/09 08:11YOGURT99murni besar50,000
4425/09 08:11TEA_89murni kecil5,000
4525/09 08:11HANALAM_99murni besar50,000
4625/09 08:08B55EK757murni kecil25,000
4725/09 08:07A70N07884murni besar5,000
4825/09 08:06ERIKPRASbalak100,000
4925/09 08:06DJAMBRETbalak100,000
5025/09 08:05B4J4KLAUT9balak100,000

Ceme Multi Jackpot System

Jackpot dilihat dari gabungan kartu pemain dengan kartu bandar. Bandar harus membeli jackpot sebanyak jumlah player yang sedang duduk. Sebagai contoh bila terdapat 3 pemain duduk bermain, dan bandar memutuskan untuk membeli jackpot Rp 1.000, maka pada periode tersebut bandar akan membeli jackpot sebanyak 3xRp1.000 = Rp3.000.

Jackpot bukanlah suatu keharusan untuk dibeli, namun kami memberikan suatu fitur tambahan untuk member tercinta dari www.pokertexas88.com.

Terdapat tiga pilihan harga jackpot yang bisa anda beli yaitu :100,500 dan 1000 rupiah.

Hadiah dari Multi jackpot system www.pokertexas88.com

  1. Murni Kecil x 50 harga jackpot yang anda beli.
      (contoh:anda membeli 1000 maka:1000 X 50 = 50.000)
  2. Murni Besar x 50 harga jackpot yang anda beli
      (contoh:anda membeli 1000 maka:1000 X 50 = 50.000)
  3. BALAK x 200 harga jackpot yang anda beli
      (contoh:anda membeli 1000 maka:1000 X 200 = 200.000)
  4. ENAM DEWA x 6666 harga jackpot yang anda beli
      (contoh:anda membeli 1000 maka:1000 X 6666 = 6.666.000)

Demikian adalah penjelasan dari Multi Jackpot www.pokertexas88.com terima kasih dan selamat bermain salam hoki dari kami

Ceme Jackpot Winner

TOP ENAM DEWA
No.TanggalNamaPriceWin
125/09 08:28LESSYmurni enam6,666,000
225/09 07:29WIJAYAKUmurni enam3,333,000
325/09 07:29RANIFATIHmurni enam666,600
425/09 07:22AZZULOVAmurni enam6,666,000
525/09 07:20GOCRING11murni enam6,666,000
TOP BALAK
No.TanggalNamaPriceWin
125/09 08:33JULII88balak20,000
225/09 08:32WILLEM22balak200,000
325/09 08:31LESSYbalak200,000
425/09 08:31HERIS72balak200,000
525/09 08:31SUBAEDIbalak20,000
LATEST JACKPOT
No.TanggalNamaPriceWin
125/09 08:33MASEKO19murni kecil50,000
225/09 08:33JULII88balak20,000
325/09 08:33ATEVVV27murni kecil50,000
425/09 08:33TOKEKMARTmurni kecil5,000
525/09 08:32EVEN099murni besar50,000
625/09 08:32ZOENK21murni besar25,000
725/09 08:32EVEN099murni besar50,000
825/09 08:32CIMOT272murni besar50,000
925/09 08:32YUNITA0806murni kecil25,000
1025/09 08:32WONGEDAN06murni besar50,000
1125/09 08:32DEDENHOKI5murni kecil50,000
1225/09 08:32LINA72murni kecil50,000
1325/09 08:32KPK9murni besar50,000
1425/09 08:32FZRGKHZKXCmurni kecil50,000
1525/09 08:32BORNEO1221murni kecil50,000
1625/09 08:32AABRIKmurni kecil50,000
1725/09 08:32WILLEM22balak200,000
1825/09 08:31LESSYbalak200,000
1925/09 08:31HERIS72balak200,000
2025/09 08:31MBOISBOSmurni kecil50,000
2125/09 08:31MBOISBOSmurni kecil50,000
2225/09 08:31DIANCUOKmurni kecil50,000
2325/09 08:31SUBAEDIbalak20,000
2425/09 08:31DA3E8B05balak100,000
2525/09 08:30AGUNGDONAmurni kecil25,000
2625/09 08:30HOKIKU1986murni kecil50,000
2725/09 08:30GARONG1010murni kecil5,000
2825/09 08:30OI69murni besar25,000
2925/09 08:30B0SBESARmurni besar25,000
3025/09 08:30SIPUTFASTmurni kecil5,000
3125/09 08:30BISATI99balak200,000
3225/09 08:30JULII88murni kecil5,000
3325/09 08:30FANTAT444murni kecil50,000
3425/09 08:29SUBAEDImurni kecil5,000
3525/09 08:29BUYUANG55murni kecil50,000
3625/09 08:29GONDRONG77murni besar50,000
3725/09 08:29DENBAGUS94murni kecil50,000
3825/09 08:29SAP1123murni kecil50,000
3925/09 08:29DENBAGUS94murni kecil50,000
4025/09 08:29OJR17balak200,000
4125/09 08:29IFANNILAbalak200,000
4225/09 08:29SUGENG354murni kecil5,000
4325/09 08:29BEJA1TERUSmurni kecil50,000
4425/09 08:29P4L9ZD0MYEbalak200,000
4525/09 08:29JOKO234balak200,000
4625/09 08:28SUBAEDImurni kecil5,000
4725/09 08:28GENTO080murni kecil50,000
4825/09 08:28SUBAEDImurni kecil5,000
4925/09 08:28ARL1590murni kecil25,000
5025/09 08:28ENGLAND23murni besar50,000